Location: Sungai Bunut
(2.6333°N, 113.7333°E)
Time: 14:28:47
(UTC+00:00)

Altair - Pass Details

Date: 03 December 2023
Orbit: 1501 x 1682 km, 47.2° (Epoch: 24 February)

Event Time Altitude Azimuth Distance (km) Brightness Sun altitude
Rises 23:23:32 0° 243° (WSW) 4,916 9.8 14.8°
Reaches altitude 10° 23:27:11 10° 252° (WSW) 3,911 9.3 15.6°
Maximum altitude 23:35:46 33° 311° (NW) 2,503 8.3 17.6°
Drops below altitude 10° 23:44:08 10° 12° (NNE) 3,792 9.5 19.5°
Sets 23:47:40 0° 22° (NNE) 4,747 10.0 20.3°
